Facebook Twitter

Wetterstation Glücksburg-Meierwik

Messwerte
  Temperatur Wetter Niederschlag Luftdruck Wind
Mi, 05:00 Uhr 7° - - 1011.9 hPa 43 km/h W

Böen 68 km/h
Mi, 04:20 Uhr 8° - - 1011 hPa 51 km/h W
Mi, 04:00 Uhr 8° - - 1011.8 hPa 47 km/h W

Böen 68 km/h
Mi, 03:00 Uhr 8° - - 1012 hPa 32 km/h W

Böen 58 km/h
Mi, 02:00 Uhr 8° - - 1013.2 hPa 32 km/h W

Böen 54 km/h
Mi, 01:00 Uhr 8° - - 1014.1 hPa 32 km/h W

Böen 61 km/h
Mi, 00:00 Uhr 8° - - 1015.1 hPa 32 km/h W

Böen 47 km/h
Di, 23:00 Uhr 7° - - 1015.9 hPa 32 km/h SW

Böen 58 km/h
Di, 22:00 Uhr 8° - - 1016.5 hPa 32 km/h W

Böen 58 km/h
Di, 21:00 Uhr 8° - - 1017.2 hPa 32 km/h W

Böen 54 km/h
Di, 20:00 Uhr 8° - - 1017.8 hPa 29 km/h SW

Böen 47 km/h
Di, 19:00 Uhr 8° - 0 mm 1018.1 hPa 25 km/h SW

Böen 54 km/h
Di, 18:00 Uhr 8° - - 1019 hPa 29 km/h SW
Di, 17:00 Uhr 8° - - 1019.6 hPa 25 km/h W

Böen 43 km/h
Di, 16:00 Uhr 8° - - 1020.1 hPa 29 km/h W

Böen 54 km/h
Di, 15:00 Uhr 8° - - 1020.7 hPa 40 km/h W

Böen 54 km/h
Di, 14:00 Uhr 8° - - 1021 hPa 32 km/h W
Di, 13:00 Uhr 8° - - 1021.2 hPa 25 km/h W
Di, 12:00 Uhr 8° - - 1021.5 hPa 32 km/h W
Di, 11:00 Uhr 7° - - 1021.2 hPa 36 km/h W

Alle Zeitangaben MEZ